Simultaneous Nadir Overpasses (SNOs) Predictions

Prediction of SNOs between GOES-15 and METOP-B Satellite Orbit:

Table of predicted SNOs for the next 14.0 days since TLE Epoch: 3/19/2022
Index Date Time (GOES-15) GOES-15 Lat,Lon METOP-B Lat,Lon Distance(km) Time Diff (sec)
1 03/19/2022 18:18:23 -0.02,-128.13 0.89,-132.26 471.03 80
2 03/20/2022 18:00:23 -0.02,-128.16 -0.19,-127.26 101.55 80
3 03/22/2022 06:16:42 0.03,-128.18 -0.82,-131.86 420.05 80
4 03/23/2022 05:58:43 0.02,-128.20 0.32,-126.87 151.85 80
5 03/24/2022 18:14:54 -0.04,-128.26 0.69,-131.43 362.54 80
6 03/25/2022 17:56:54 -0.03,-128.28 -0.46,-126.45 208.93 80
7 03/27/2022 06:13:14 0.04,-128.29 -0.55,-131.04 313.91 80
8 03/28/2022 05:55:13 0.04,-128.30 0.54,-126.04 257.48 80
9 03/29/2022 18:11:25 -0.05,-128.35 0.47,-130.61 257.27 80
10 03/30/2022 17:53:25 -0.04,-128.37 -0.68,-125.62 314.29 80
11 04/01/2022 06:09:43 0.05,-128.38 -0.38,-130.21 208.36 80
